Location: Brompton
(51.4000°N, 0.5333°E)
Time: 04:55:24
(UTC+00:00)

USA 215 - Pass Details

Date: 03 October 2021
Orbit: 1093 x 1114 km, 123.0° (Epoch: 14 October)

Event Time Altitude Azimuth Distance (km) Brightness Sun altitude
Exits shadow 22:10:29 22° 262° (W) 2,174 4.9 -38.8°
Drops below altitude 10° 22:13:37 10° 288° (WNW) 2,961 6.0 -39.1°
Sets 22:16:34 0° 300° (WNW) 3,925 6.8 -39.3°
